Hourly Data Report for September 20, 2003

TORONTO CITY
ONTARIO

43°40'00.000" N
79°24'00.000" W
112.50 m
6158355
71508
XTO

Download Data

Hourly Data (September 2003)
Hourly Data Report for September 20, 2003
TIME
LST
Temp Definition
°C
Dew Point Definition
°C
Rel Hum Definition
%
Precip. Amount Definition
mm

Wind Dir Definition
10's deg

Wind Spd Definition
km/h
Visibility Definition
km
Stn Press Definition
kPa
Hmdx Definition


Wind Chill Definition


Weather Definition


00:00 17.4 12.6 73   LegendMM LegendMM LegendMM 100.06     LegendNANA
01:00 16.3 11.2 72   LegendMM LegendMM LegendMM 100.17     LegendNANA
02:00 15.4 10.6 73   LegendMM LegendMM LegendMM 100.26     LegendNANA
03:00 14.6 10.3 75   LegendMM LegendMM LegendMM 100.32     LegendNANA
04:00 14.1 10.4 78   LegendMM LegendMM LegendMM 100.39     LegendNANA
05:00 13.3 10.1 81   LegendMM LegendMM LegendMM 100.48     LegendNANA
06:00 12.5 9.5 82   LegendMM LegendMM LegendMM 100.53     LegendNANA
07:00 12.9 9.9 82   LegendMM LegendMM LegendMM 100.61     LegendNANA
08:00 14.2 10.5 78   LegendMM LegendMM LegendMM 100.68     LegendNANA
09:00 16.2 10.9 71   LegendMM LegendMM LegendMM 100.75     LegendNANA
10:00 17.9 10.2 61   LegendMM LegendMM LegendMM 100.77     LegendNANA
11:00 17.9 8.8 55   LegendMM LegendMM LegendMM 100.79     LegendNANA
12:00 18.5 9.0 54   LegendMM LegendMM LegendMM 100.80     LegendNANA
13:00 19.2 8.6 50   LegendMM LegendMM LegendMM 100.80     LegendNANA
14:00 20.1 8.8 48   LegendMM LegendMM LegendMM 100.78     LegendNANA
15:00 20.0 7.8 45   LegendMM LegendMM LegendMM 100.79     LegendNANA
16:00 20.0 7.5 44   LegendMM LegendMM LegendMM 100.80     LegendNANA
17:00 19.8 7.5 45   LegendMM LegendMM LegendMM 100.83     LegendNANA
18:00 18.8 7.6 48   LegendMM LegendMM LegendMM 100.87     LegendNANA
19:00 17.3 8.3 55   LegendMM LegendMM LegendMM 100.93     LegendNANA
20:00 16.8 9.3 61   LegendMM LegendMM LegendMM 101.01     LegendNANA
21:00 15.5 10.1 70   LegendMM LegendMM LegendMM 101.06     LegendNANA
22:00 15.4 10.2 71   LegendMM LegendMM LegendMM 101.09     LegendNANA
23:00 14.8 9.9 72   LegendMM LegendMM LegendMM 101.12     LegendNANA

Notes on Data Quality.

Legend

  • E = Estimated
  • M = Missing
  • NA = Not Available*
  • [empty] = Indicates an unobserved value
Date modified: